Big Piney, WY

3:58 PM MST on December 10, 2016 (GMT -0700)
Big Piney-Marbleton

Weather History for KBPI - March, 2013

Change the Weather History Date:

Thursday, March 7, 2013

  Actual Average Record
Temperature  
Mean Temperature 30 °F 23 °F  
Max Temperature 38 °F 37 °F 53 °F (2015)
Min Temperature 21 °F 9 °F -17 °F (1985)
Degree Days  
Heating Degree Days 35 42  
Month to date heating degree days 272 303  
Since 1 July heating degree days 7136 7826  
Cooling Degree Days 0 0  
Month to date cooling degree days 0 0  
Year to date cooling degree days 0 0  
Moisture  
Dew Point 18 °F    
Average Humidity 58    
Maximum Humidity 81    
Minimum Humidity 35    
Precipitation  
Precipitation 0.00 in 0.01 in 0.04 in (1989)
Month to date precipitation T 0.07  
Year to date precipitation 0.16 0.73  
Sea Level Pressure  
Sea Level Pressure 29.97 in    
Wind  
Wind Speed 6 mph (NNE)    
Max Wind Speed 21 mph    
Max Gust Speed 26 mph    
Visibility 10 miles    
Events      
T = Trace of Precipitation, MM = Missing Value Source: NWS Daily Summary

Daily Weather History Graph

Daily Weather History Graph

Search for Another Location

Airport or City:

Trip Planner

Search our weather history database for the weather conditions in past years. The results will help you decide how hot, cold, wet, or windy it might be!

Date:

Astronomy

Mar. 07, 2013 Rise Set
Actual Time 6:45 AM MST 6:17 PM MST
Civil Twilight 6:17 AM MST 6:45 PM MST
Nautical Twilight 5:44 AM MST 7:18 PM MST
Astronomical Twilight 5:12 AM MST 7:51 PM MST
Moon 3:52 AM MST (3/7) 2:05 PM MST (3/7)
Length of Visible Light 12h 28m
Length of Day
11h 32m
Waning Crescent, 19% of the Moon is Illuminated
Mar 7
Waning Crescent
Mar 11
New
Mar 19
First Quarter
Mar 27
Full
Apr 2
Last Quarter

Hourly Weather History & Observations

Time (MST) Temp. Windchill Dew Point Humidity Pressure Visibility Wind Dir Wind Speed Gust Speed Precip Events Conditions
12:53 AM 27.0 °F 15.2 °F 19.0 °F 72% 29.90 in 10.0 mi North 15.0 mph - N/A   Overcast
1:53 AM 26.1 °F 15.6 °F 18.0 °F 71% 29.90 in 10.0 mi North 11.5 mph - N/A   Mostly Cloudy
2:53 AM 26.1 °F 17.6 °F 17.1 °F 69% 29.90 in 10.0 mi NE 8.1 mph - N/A   Overcast
3:53 AM 26.1 °F 19.4 °F 19.0 °F 75% 29.92 in 10.0 mi NE 5.8 mph - N/A   Overcast
4:53 AM 23.0 °F 13.9 °F 17.1 °F 78% 29.97 in 10.0 mi NW 8.1 mph - N/A   Overcast
5:53 AM 23.0 °F 18.4 °F 16.0 °F 74% 29.99 in 10.0 mi NW 3.5 mph - N/A   Overcast
6:53 AM 21.0 °F 14.6 °F 15.1 °F 78% 30.02 in 10.0 mi NW 4.6 mph - N/A   Partly Cloudy
7:53 AM 24.1 °F 15.2 °F 17.1 °F 75% 30.03 in 10.0 mi NW 8.1 mph - N/A   Overcast
8:53 AM 28.0 °F 22.8 °F 18.0 °F 66% 30.01 in 10.0 mi NW 4.6 mph - N/A   Overcast
9:53 AM 28.9 °F - 16.0 °F 58% 30.02 in 10.0 mi Calm Calm - N/A   Overcast
10:53 AM 32.0 °F - 14.0 °F 48% 30.01 in 10.0 mi Calm Calm - N/A   Overcast
11:53 AM 33.1 °F 28.7 °F 17.1 °F 52% 30.00 in 10.0 mi Variable 4.6 mph - N/A   Mostly Cloudy
12:53 PM 36.0 °F 32.1 °F 16.0 °F 44% 29.97 in 10.0 mi ESE 4.6 mph - N/A   Scattered Clouds
1:53 PM 37.0 °F 33.3 °F 12.9 °F 37% 29.94 in 10.0 mi East 4.6 mph - N/A   Clear
2:53 PM 37.9 °F 33.5 °F 17.1 °F 43% 29.94 in 10.0 mi East 5.8 mph - N/A   Clear
3:53 PM 37.0 °F 34.5 °F 18.0 °F 46% 29.94 in 10.0 mi South 3.5 mph - N/A   Scattered Clouds
4:53 PM 37.0 °F - 18.0 °F 46% 29.96 in 10.0 mi Calm Calm - N/A   Clear
5:53 PM 34.0 °F 31.0 °F 18.0 °F 52% 29.98 in 10.0 mi ESE 3.5 mph - N/A   Clear
6:53 PM 30.0 °F 22.4 °F 21.9 °F 72% 30.01 in 10.0 mi NNE 8.1 mph - N/A   Clear
7:53 PM 27.0 °F 18.7 °F 21.0 °F 78% 30.01 in 10.0 mi NNW 8.1 mph - N/A   Clear
8:53 PM 27.0 °F 20.5 °F 21.9 °F 81% 30.00 in 10.0 mi NNW 5.8 mph - N/A   Mostly Cloudy
9:53 PM 28.9 °F 20.4 °F 21.0 °F 72% 29.99 in 10.0 mi North 9.2 mph - N/A   Overcast
10:53 PM 28.0 °F 22.8 °F 23.0 °F 81% 29.97 in 10.0 mi ESE 4.6 mph - N/A   Overcast
11:53 PM 28.0 °F - 21.9 °F 78% 29.95 in 10.0 mi Calm Calm - N/A   Overcast